[[{"header":{"parameterUnit":"m.s-1","parameterCategory":2,"la1":30.2991,"la2":30.254,"lo1":-89.0895,"lo2":-89.0444,"dy":0.0017,"dx":0.0017,"nx":28,"ny":28,"refTime":"2025-11-13T09:00:00:Z","depth":"0","parameterNumber":2,"parameterNumberName":"U-component_of_CURRENTS"},"data":[0,0,0,0,0,0,0,0,0,0,0,0,0,0,0,0,0,0,0,0,0,0,0,0,0,0,0,0,0,0,0,0,0,0,0,0,0,0,0,0,0,0,0,0,0,0,0,0,0,0,0,0,0,0,0,0,0,0,0.1494,0.1495,0,0.1575,0.1576,0.1577,0.1566,0.1565,0.1564,0.1563,0.1663,0.1666,0.167,0,0,0,0,0,0,0,0,0,0,0,0,0,0.138,0.1382,0.1494,0.1495,0.1496,0.1575,0.1576,0.1577,0.1566,0.1565,0.1564,0.1562,0.1661,0.1666,0.167,0,0,0,0,0,0,0,0,0,0,0,0,0,0.1441,0.1382,0.1494,0.1501,0.1503,0.1575,0.1576,0.1577,0.1567,0.1565,0.1563,0.1561,0.166,0.1665,0.1671,0.1742,0,0,0.1688,0.1691,0,0,0,0,0,0,0,0,0.1437,0.1445,0.1499,0.1501,0.1503,0.156,0.1572,0.1634,0.1567,0.1541,0.1563,0.1561,0.1632,0.164,0.1657,0.1747,0.1751,0.1689,0.1692,0.1695,0.1696,0,0,0,0,0,0,0,0.1433,0.1441,0.1525,0.1501,0.1503,0.1518,0.1524,0.1584,0.1595,0.1543,0.1543,0.1555,0.1633,0.1652,0.1659,0.1753,0.1689,0.1694,0.1697,0.1699,0.1907,0.1909,0,0,0,0,0,0,0.1426,0.1438,0.1522,0.1527,0.1466,0.1522,0.1528,0.1542,0.1594,0.1601,0.1556,0.1554,0.1643,0.1653,0.1663,0.1741,0.1695,0.17,0.1703,0.1905,0.1908,0.191,0,0,0,0,0,0,0.1423,0.1432,0.1519,0.1485,0.1497,0.1525,0.1541,0.1545,0.1565,0.1604,0.161,0.1572,0.1642,0.1655,0.1728,0.1745,0.1702,0.1708,0.1903,0.1906,0.1909,0.1903,0,0,0,0,0,0,0.1419,0.1431,0.1446,0.1485,0.1499,0.156,0.1543,0.1548,0.1575,0.1573,0.1621,0.1627,0.1641,0.1719,0.1733,0.1752,0.1712,0.19,0.1904,0.1908,0.19,0.1905,0.191,0,0,0,0,0,0.1415,0.1443,0.1446,0.1457,0.1516,0.1562,0.1571,0.1583,0.1578,0.1593,0.1632,0.1626,0.1754,0.1727,0.1742,0.1762,0.1898,0.1903,0.1908,0.1898,0.1904,0.191,0,0,0,0,0,0,0.1413,0.1446,0.145,0.149,0.1521,0.156,0.1583,0.1593,0.1637,0.1636,0.1665,0.1676,0.1746,0.1768,0.1737,0.1837,0.1822,0.183,0.1809,0.1815,0.182,0.1803,0.1717,0,0,0,0,0,0.1418,0.144,0.1476,0.151,0.1524,0.1556,0.1579,0.1588,0.1629,0.1645,0.1679,0.1725,0.1782,0.1807,0.1859,0.1923,0.1938,0.1945,0.195,0.1953,0.1953,0.2,0.2008,0.1926,0.1926,0.1926,0,0,0.1428,0.145,0.1464,0.151,0.1534,0.1559,0.1565,0.1602,0.1624,0.1654,0.1702,0.1751,0.1807,0.187,0.1902,0.1886,0.1987,0.196,0.1962,0.196,0.2006,0.2013,0.202,0.1929,0.1929,0.1928,0,0,0.1446,0.1476,0.149,0.1515,0.1553,0.1576,0.1587,0.1629,0.1647,0.1709,0.1736,0.1796,0.1876,0.1914,0.1945,0.2016,0.2017,0.2032,0.2034,0.2079,0.2085,0.2091,0.2118,0.2126,0.2025,0.2025,0.2025,0,0.1453,0.1474,0.1505,0.1522,0.1541,0.158,0.1596,0.1634,0.1694,0.1718,0.172,0.1848,0.1894,0.1972,0.1994,0.2023,0.2044,0.2,0.2082,0.2088,0.2093,0.212,0.2129,0.2025,0.2025,0.2025,0.2025,0,0.1469,0.1488,0.1504,0.1529,0.156,0.1586,0.1631,0.1667,0.1696,0.1729,0.1812,0.1882,0.1947,0.1979,0.201,0.2081,0.2081,0.2085,0.2056,0.2101,0.2127,0.2136,0.2026,0.2025,0.2025,0.2025,0,0,0.1465,0.1503,0.1504,0.1507,0.1561,0.1582,0.1633,0.1683,0.1707,0.1777,0.1816,0.1927,0.1956,0.1996,0.2044,0.209,0.2154,0.2103,0.2105,0.2109,0.2245,0.2231,0.2239,0.2169,0.217,0.2172,0.2244,0,0.1459,0.1475,0.1503,0.1523,0.1533,0.1582,0.162,0.1674,0.1725,0.1778,0.186,0.1923,0.1965,0.1997,0.2054,0.2136,0.218,0.2134,0.2219,0.2221,0.2186,0.225,0.2239,0.2301,0.2253,0.2254,0.2256,0,0.1448,0.146,0.147,0.1499,0.1508,0.1529,0.1582,0.1622,0.1712,0.1753,0.183,0.1894,0.1994,0.2012,0.2156,0.2123,0.2186,0.224,0.2243,0.2237,0.2225,0.2253,0.232,0.2269,0.227,0.2269,0.2268,0,0.1401,0.1431,0.1432,0.1444,0.1493,0.1504,0.1532,0.1608,0.1641,0.1734,0.1766,0.1888,0.1944,0.205,0.2173,0.2167,0.2315,0.2314,0.2358,0.2357,0.2368,0.2365,0.2378,0.2408,0.2408,0.2408,0.2407,0,0.1373,0.1369,0.1404,0.1404,0.1407,0.1454,0.1472,0.1522,0.1592,0.1632,0.1741,0.1799,0.1958,0.2064,0.2169,0.2295,0.2312,0.2373,0.2384,0.2366,0.2362,0.2334,0.2269,0.241,0.241,0.2409,0.2409,0,0.1312,0.1339,0.1335,0.1371,0.1381,0.1378,0.142,0.1437,0.1509,0.1564,0.1593,0.1741,0.1886,0.2035,0.221,0.2279,0.2344,0.2438,0.2398,0.2404,0.2384,0.2318,0.2174,0.216,0.2499,0.2499,0.2499,0,0.1278,0.1272,0.1295,0.1289,0.1299,0.1307,0.1318,0.1388,0.1413,0.1532,0.1556,0.1707,0.182,0.2062,0.2243,0.242,0.2342,0.2473,0.2464,0.2391,0.2327,0.2144,0.2132,0.248,0.248,0.248,0.248,0,0.1209,0.1218,0.1216,0.1209,0.1209,0.1217,0.1237,0.1252,0.1342,0.1395,0.1486,0.1582,0.1842,0.203,0.2259,0.2383,0.2342,0.2476,0.2426,0.2334,0.2111,0.2102,0.2404,0.248,0.248,0.248,0.248,0.248,0.1145,0.1126,0.1127,0.1117,0.112,0.1123,0.112,0.1161,0.1201,0.1282,0.1393,0.1517,0.1784,0.2127,0.2277,0.2454,0.2341,0.2436,0.2371,0.2198,0.2149,0.2435,0.2502,0.2502,0.2502,0.2502,0.2502,0,0.1054,0.1047,0.1035,0.1025,0.1007,0.104,0.1063,0.107,0.1102,0.1202,0.1281,0.1491,0.1749,0.2024,0.2302,0.2333,0.2294,0.2297,0.2069,0.208,0.2393,0.2363,0.237,0.237,0.237,0.237,0.237,0.237,0.0999,0.0961,0.0965,0.0919,0.0918,0.0896,0.0904,0.0937,0.1002,0.1089,0.1181,0.1282,0.149,0.1808,0.2039,0.2118,0.2021,0.1909,0.189,0.2149,0.2158,0.2165,0.2125,0.2082,0.2082,0.1562,0.1558,0.1555]},{"header":{"parameterUnit":"m.s-1","parameterCategory":2,"la1":30.2991,"la2":30.254,"lo1":-89.0895,"lo2":-89.0444,"dy":0.0017,"dx":0.0017,"nx":28,"ny":28,"refTime":"2025-11-13T09:00:00:Z","depth":"0","parameterNumber":3,"parameterNumberName":"V-component_of_CURRENTS"},"data":[0,0,0,0,0,0,0,0,0,0,0,0,0,0,0,0,0,0,0,0,0,0,0,0,0,0,0,0,0,0,0,0,0,0,0,0,0,0,0,0,0,0,0,0,0,0,0,0,0,0,0,0,0,0,0,0,0,0,0.1248,0.1248,0,0.1246,0.1246,0.1246,0.1216,0.1215,0.1215,0.1214,0.1136,0.1134,0.1133,0,0,0,0,0,0,0,0,0,0,0,0,0,0.1182,0.1183,0.1248,0.1248,0.1248,0.1246,0.1246,0.1246,0.1216,0.1215,0.1214,0.1214,0.1136,0.1135,0.1133,0,0,0,0,0,0,0,0,0,0,0,0,0,0.1196,0.1184,0.1248,0.1235,0.1234,0.1246,0.1246,0.1246,0.1216,0.1215,0.1214,0.1214,0.1137,0.1135,0.1132,0.1134,0,0,0.1125,0.1124,0,0,0,0,0,0,0,0,0.1196,0.1198,0.1236,0.1236,0.1235,0.1233,0.1194,0.1206,0.1216,0.122,0.1214,0.1213,0.1163,0.1159,0.1158,0.113,0.1127,0.1125,0.1123,0.1122,0.1122,0,0,0,0,0,0,0,0.1195,0.1198,0.1245,0.1237,0.1236,0.1215,0.1216,0.1196,0.1193,0.122,0.1218,0.1222,0.1162,0.116,0.1156,0.1126,0.1125,0.1123,0.1121,0.1121,0.1062,0.1062,0,0,0,0,0,0,0.1203,0.1198,0.1245,0.1245,0.1216,0.1217,0.1218,0.1232,0.1195,0.119,0.1223,0.1221,0.1165,0.1158,0.1153,0.1141,0.1122,0.112,0.1119,0.1062,0.1062,0.1062,0,0,0,0,0,0,0.1202,0.1208,0.1245,0.1222,0.1226,0.122,0.1235,0.1232,0.1232,0.1199,0.1191,0.1226,0.1164,0.1156,0.1139,0.1138,0.1119,0.1117,0.1062,0.1062,0.1062,0.1125,0,0,0,0,0,0,0.12,0.1208,0.122,0.1223,0.1228,0.1255,0.1236,0.1233,0.1237,0.1235,0.1199,0.1191,0.1163,0.1143,0.1137,0.1134,0.1115,0.1062,0.1062,0.1062,0.1123,0.1127,0.113,0,0,0,0,0,0.1198,0.1217,0.1221,0.1227,0.1245,0.1256,0.1256,0.1246,0.1239,0.1242,0.1219,0.1192,0.1136,0.1142,0.1135,0.1131,0.1063,0.1062,0.1062,0.1121,0.1126,0.113,0,0,0,0,0,0,0.1197,0.1216,0.122,0.1245,0.1253,0.1252,0.1256,0.1253,0.124,0.1234,0.12,0.1191,0.1174,0.1144,0.1151,0.1111,0.1091,0.1089,0.1138,0.1142,0.1146,0.1158,0.1113,0,0,0,0,0,0.1205,0.1222,0.1236,0.1256,0.1262,0.1262,0.1265,0.1262,0.1253,0.1247,0.1224,0.1192,0.1167,0.115,0.1125,0.111,0.1077,0.1098,0.1101,0.1105,0.1108,0.1054,0.1053,0.1061,0.1061,0.1061,0,0,0.1209,0.1223,0.1233,0.1256,0.126,0.1271,0.1261,0.127,0.1276,0.1239,0.1234,0.1209,0.1167,0.115,0.1137,0.1124,0.1088,0.1104,0.1108,0.1109,0.1054,0.1053,0.1052,0.1061,0.1061,0.1061,0,0,0.1221,0.1241,0.1254,0.1265,0.1279,0.1281,0.1288,0.1292,0.1288,0.1288,0.1258,0.1237,0.1202,0.1172,0.1152,0.1159,0.1113,0.1144,0.1169,0.1117,0.1116,0.1115,0.1087,0.1083,0.1141,0.1141,0.1141,0,0.1221,0.1249,0.1259,0.1274,0.1286,0.1288,0.1303,0.1304,0.1301,0.1301,0.129,0.1244,0.1211,0.1185,0.1186,0.1168,0.1137,0.116,0.1122,0.112,0.1118,0.109,0.1084,0.1144,0.1144,0.1144,0.1143,0,0.1239,0.1263,0.1272,0.1294,0.1307,0.1322,0.1331,0.1338,0.1336,0.1333,0.1318,0.1281,0.1249,0.1234,0.1214,0.1182,0.1167,0.1139,0.1116,0.1121,0.1091,0.1084,0.1148,0.1147,0.1146,0.1146,0,0,0.1227,0.1275,0.1277,0.1295,0.1321,0.1332,0.1349,0.1362,0.1369,0.1359,0.1358,0.1321,0.1303,0.1279,0.1246,0.1205,0.117,0.117,0.1166,0.1152,0.107,0.1049,0.1039,0.1132,0.1131,0.113,0.1061,0,0.1233,0.1269,0.1292,0.1324,0.1342,0.136,0.1376,0.1388,0.1389,0.1388,0.1357,0.1339,0.1318,0.13,0.1261,0.1192,0.1152,0.1192,0.1058,0.1055,0.1043,0.103,0.1088,0.1029,0.1054,0.1053,0.1052,0,0.1234,0.1262,0.1296,0.1344,0.1354,0.1371,0.1398,0.1415,0.1418,0.1417,0.1402,0.1377,0.1335,0.1305,0.1201,0.1227,0.1156,0.1101,0.1096,0.1049,0.1021,0.1023,0.1016,0.1011,0.1041,0.1042,0.1043,0,0.1211,0.1262,0.1292,0.1307,0.1358,0.1375,0.14,0.1418,0.1432,0.1431,0.143,0.1387,0.1354,0.1269,0.118,0.1179,0.1059,0.1036,0.0954,0.0952,0.096,0.0961,0.0939,0.0948,0.0948,0.0948,0.0949,0,0.1206,0.1228,0.1283,0.1298,0.1334,0.1369,0.1397,0.142,0.1437,0.1448,0.1438,0.1426,0.1337,0.1269,0.1184,0.1058,0.1057,0.0957,0.0926,0.0985,0.0989,0.0951,0.0934,0.0946,0.0946,0.0947,0.0947,0,0.1176,0.1212,0.1249,0.1306,0.1325,0.1348,0.1403,0.1419,0.1441,0.1451,0.145,0.1436,0.1359,0.1275,0.1136,0.1055,0.0914,0.0892,0.0985,0.0965,0.0876,0.086,0.0702,0.0674,0.0786,0.0785,0.0784,0,0.1163,0.118,0.1247,0.1271,0.1298,0.1338,0.1366,0.1411,0.1431,0.1454,0.1454,0.1406,0.1383,0.1208,0.1074,0.0932,0.0877,0.0863,0.0861,0.0878,0.0837,0.077,0.0754,0.0906,0.0907,0.0907,0.0907,0,0.1139,0.1164,0.1198,0.1252,0.1287,0.1329,0.1373,0.139,0.1435,0.1449,0.1456,0.1446,0.1326,0.1232,0.106,0.0957,0.0853,0.0859,0.0848,0.0904,0.0856,0.0814,0.0962,0.0908,0.0908,0.0908,0.0908,0.0908,0.1116,0.1134,0.1183,0.1235,0.1275,0.1316,0.134,0.1382,0.1416,0.1446,0.1451,0.1453,0.14,0.1189,0.104,0.0878,0.082,0.0845,0.0818,0.0743,0.073,0.0888,0.081,0.081,0.0809,0.0808,0.0808,0,0.1082,0.112,0.1166,0.1226,0.1259,0.1295,0.1342,0.1362,0.1392,0.1438,0.1454,0.1492,0.1385,0.1247,0.1065,0.0911,0.0805,0.0835,0.0796,0.0774,0.091,0.0937,0.0918,0.0918,0.0918,0.0918,0.0918,0.0918,0.1067,0.1099,0.1136,0.1197,0.1238,0.1276,0.1298,0.1334,0.1373,0.1438,0.1491,0.1547,0.1572,0.1238,0.1025,0.0947,0.0828,0.0758,0.0677,0.085,0.0851,0.0851,0.0874,0.0843,0.0843,0.0572,0.057,0.0569]}],[{"header":{"parameterUnit":"m.s-1","parameterCategory":2,"la1":30.2991,"la2":30.254,"lo1":-89.0895,"lo2":-89.0444,"dy":0.0017,"dx":0.0017,"nx":28,"ny":28,"refTime":"2025-11-13T09:00:00:Z","depth":"2","parameterNumber":2,"parameterNumberName":"U-component_of_CURRENTS"},"data":[0,0,0,0,0,0,0,0,0,0,0,0,0,0,0,0,0,0,0,0,0,0,0,0,0,0,0,0,0,0,0,0,0,0,0,0,0,0,0,0,0,0,0,0,0,0,0,0,0,0,0,0,0,0,0,0,0,0,0.0087,0.0087,0,0.0072,0.0072,0.0072,0.0078,0.0078,0.0079,0.0079,0.0062,0.0062,0.0061,0,0,0,0,0,0,0,0,0,0,0,0,0,0.0099,0.0099,0.0087,0.0087,0.0087,0.0072,0.0072,0.0072,0.0078,0.0078,0.0079,0.0079,0.0063,0.0062,0.0061,0,0,0,0,0,0,0,0,0,0,0,0,0,0.0089,0.0099,0.0087,0.0088,0.0088,0.0072,0.0072,0.0072,0.0078,0.0079,0.0079,0.008,0.0063,0.0062,0.0061,0.0041,0,0,0.0057,0.0056,0,0,0,0,0,0,0,0,0.009,0.0089,0.0088,0.0088,0.0088,0.0078,0.007,0.0061,0.0078,0.0081,0.0079,0.008,0.0067,0.0066,0.0061,0.004,0.004,0.0057,0.0056,0.0056,0.0055,0,0,0,0,0,0,0,0.0091,0.009,0.0081,0.0088,0.0088,0.0082,0.0082,0.0068,0.0071,0.0081,0.0082,0.0081,0.0067,0.0062,0.0061,0.0039,0.0057,0.0056,0.0055,0.0054,0.0045,0.0045,0,0,0,0,0,0,0.0094,0.009,0.0081,0.008,0.0091,0.0082,0.0081,0.008,0.0071,0.007,0.008,0.0081,0.0064,0.0062,0.006,0.0082,0.0056,0.0054,0.0054,0.0044,0.0045,0.0045,0,0,0,0,0,0,0.0094,0.0093,0.0082,0.0085,0.0084,0.0081,0.008,0.008,0.0085,0.007,0.007,0.0087,0.0064,0.0062,0.006,0.008,0.0054,0.0053,0.0044,0.0044,0.0045,0.0098,0,0,0,0,0,0,0.0095,0.0093,0.0096,0.0086,0.0083,0.0079,0.0079,0.0079,0.0083,0.0084,0.0075,0.0074,0.0065,0.0062,0.0059,0.0078,0.0052,0.0043,0.0044,0.0045,0.0095,0.01,0.0104,0,0,0,0,0,0.0095,0.0096,0.0096,0.0095,0.0087,0.0079,0.0077,0.0077,0.0083,0.0084,0.0083,0.0075,0.0066,0.0061,0.0057,0.0077,0.0043,0.0044,0.0045,0.0093,0.0099,0.0104,0,0,0,0,0,0,0.0106,0.0097,0.0097,0.0096,0.0091,0.008,0.0083,0.0082,0.0081,0.0088,0.0075,0.0073,0.008,0.0067,0.0062,0.0076,0.0055,0.0055,0.0093,0.0098,0.0102,0.0118,0.0051,0,0,0,0,0,0.0108,0.0107,0.0098,0.0099,0.0098,0.0092,0.0091,0.0091,0.0087,0.0088,0.0084,0.0081,0.0078,0.008,0.0071,0.0075,0.0087,0.0086,0.0091,0.0094,0.0104,0.0133,0.0142,0.0049,0.0049,0.0049,0,0,0.0113,0.0108,0.0108,0.0101,0.0099,0.0101,0.0094,0.0096,0.0104,0.0086,0.0099,0.0093,0.0081,0.009,0.0092,0.0085,0.013,0.0096,0.0099,0.0107,0.0135,0.0145,0.0153,0.005,0.0049,0.0049,0,0,0.0121,0.0119,0.0121,0.0118,0.0117,0.0113,0.0116,0.0112,0.0119,0.0124,0.0119,0.0128,0.0118,0.0122,0.012,0.0141,0.0149,0.0139,0.0179,0.0208,0.0216,0.0223,0.0268,0.0279,0.0146,0.0146,0.0146,0,0.0131,0.0131,0.0121,0.0124,0.0128,0.0121,0.013,0.013,0.0129,0.0142,0.0137,0.0148,0.0136,0.0157,0.0168,0.0154,0.0177,0.0161,0.0215,0.0223,0.0229,0.0273,0.0284,0.0149,0.0148,0.0148,0.0148,0,0.0138,0.0143,0.0146,0.0148,0.0149,0.0156,0.0156,0.0166,0.0175,0.018,0.0205,0.0196,0.021,0.0206,0.0194,0.0237,0.0241,0.0216,0.0206,0.0242,0.0285,0.0297,0.0152,0.0151,0.0151,0.015,0,0,0.016,0.0152,0.0158,0.0165,0.0166,0.017,0.0187,0.0204,0.0229,0.0235,0.0272,0.0271,0.028,0.0279,0.0271,0.0294,0.0362,0.0282,0.0283,0.0335,0.0448,0.048,0.0494,0.0351,0.0353,0.0354,0.0466,0,0.0176,0.0184,0.0179,0.0199,0.0205,0.0209,0.0227,0.0243,0.0259,0.0292,0.0301,0.0327,0.0304,0.0323,0.0343,0.0351,0.0391,0.0336,0.0398,0.04,0.043,0.0508,0.0278,0.0361,0.0477,0.0479,0.048,0,0.0196,0.0196,0.0215,0.023,0.0236,0.0252,0.0291,0.0304,0.034,0.0358,0.039,0.0397,0.0438,0.0408,0.0467,0.0436,0.0456,0.0461,0.0465,0.0483,0.0452,0.0339,0.0376,0.0498,0.0497,0.0495,0.0494,0,0.0222,0.023,0.0248,0.0252,0.0263,0.0289,0.0304,0.0336,0.0356,0.0411,0.044,0.048,0.0513,0.0537,0.0558,0.0522,0.0626,0.0572,0.0625,0.0627,0.0439,0.0423,0.063,0.063,0.063,0.063,0.0629,0,0.0244,0.0265,0.0266,0.0277,0.0311,0.0317,0.0363,0.0385,0.0423,0.0458,0.0484,0.0524,0.0547,0.06,0.0604,0.0671,0.0673,0.0662,0.0668,0.0454,0.0438,0.0548,0.0537,0.0634,0.0633,0.0632,0.0631,0,0.0279,0.0276,0.0299,0.0314,0.0325,0.0356,0.039,0.0417,0.0457,0.0507,0.0531,0.0582,0.0663,0.0698,0.0752,0.0744,0.0788,0.0809,0.0576,0.0553,0.0758,0.0748,0.0882,0.0884,0.0886,0.0887,0.0889,0,0.0299,0.0311,0.0328,0.0343,0.0358,0.0394,0.0415,0.044,0.0461,0.0537,0.056,0.0661,0.0723,0.0838,0.0825,0.0879,0.0886,0.0712,0.0602,0.0797,0.0788,0.0775,0.0763,0.0368,0.0365,0.0363,0.0361,0,0.0336,0.0344,0.0356,0.0378,0.0403,0.0422,0.0452,0.0465,0.0499,0.0541,0.0609,0.0672,0.077,0.0732,0.0814,0.078,0.0683,0.0669,0.0924,0.036,0.0327,0.0314,0.0316,0.0339,0.0341,0.0342,0.0344,0.0345,0.0373,0.0383,0.0393,0.042,0.0439,0.0452,0.0461,0.048,0.051,0.0546,0.0607,0.0634,0.0577,0.0619,0.0638,0.062,0.0665,0.0531,0.0532,0.0536,0.0477,0.0451,0.0475,0.0478,0.0481,0.0483,0.0485,0,0.0416,0.042,0.0432,0.0448,0.0459,0.0475,0.0483,0.0472,0.0496,0.0499,0.0548,0.0418,0.0385,0.0404,0.0347,0.0371,0.0291,0.0329,0.0164,0.0181,0.0198,0.0117,0.0023,0.0024,0.0024,0.0025,0,0,0.0438,0.0448,0.0439,0.046,0.048,0.0486,0.0489,0.0471,0.0443,0.0407,0.0361,0.0335,0.0311,0.0168,0.0119,0.0096,0.0149,0.006,0.0389,0.0205,0.0224,0.0234,0.0121,0,0,0,0,0]},{"header":{"parameterUnit":"m.s-1","parameterCategory":2,"la1":30.2991,"la2":30.254,"lo1":-89.0895,"lo2":-89.0444,"dy":0.0017,"dx":0.0017,"nx":28,"ny":28,"refTime":"2025-11-13T09:00:00:Z","depth":"2","parameterNumber":3,"parameterNumberName":"V-component_of_CURRENTS"},"data":[0,0,0,0,0,0,0,0,0,0,0,0,0,0,0,0,0,0,0,0,0,0,0,0,0,0,0,0,0,0,0,0,0,0,0,0,0,0,0,0,0,0,0,0,0,0,0,0,0,0,0,0,0,0,0,0,0,0,-0.0527,-0.0527,0,-0.053,-0.053,-0.053,-0.0536,-0.0536,-0.0536,-0.0536,-0.0536,-0.0535,-0.0535,0,0,0,0,0,0,0,0,0,0,0,0,0,-0.0517,-0.0517,-0.0527,-0.0527,-0.0527,-0.053,-0.053,-0.053,-0.0536,-0.0536,-0.0536,-0.0536,-0.0536,-0.0535,-0.0535,0,0,0,0,0,0,0,0,0,0,0,0,0,-0.0521,-0.0517,-0.0527,-0.053,-0.0531,-0.053,-0.053,-0.053,-0.0536,-0.0536,-0.0536,-0.0536,-0.0536,-0.0535,-0.0535,-0.0531,0,0,-0.0535,-0.0535,0,0,0,0,0,0,0,0,-0.0521,-0.0521,-0.053,-0.053,-0.053,-0.0533,-0.0526,-0.053,-0.0536,-0.0534,-0.0536,-0.0536,-0.0534,-0.0534,-0.0535,-0.0531,-0.0531,-0.0535,-0.0535,-0.0535,-0.0535,0,0,0,0,0,0,0,-0.052,-0.0521,-0.0528,-0.053,-0.053,-0.0528,-0.0529,-0.0527,-0.0533,-0.0534,-0.0535,-0.0535,-0.0534,-0.0535,-0.0535,-0.0531,-0.0535,-0.0535,-0.0535,-0.0534,-0.0525,-0.0525,0,0,0,0,0,0,-0.052,-0.0521,-0.0528,-0.0529,-0.0526,-0.0528,-0.0529,-0.0532,-0.0533,-0.0534,-0.0535,-0.0535,-0.0535,-0.0535,-0.0535,-0.0528,-0.0535,-0.0534,-0.0534,-0.0525,-0.0525,-0.0525,0,0,0,0,0,0,-0.052,-0.0521,-0.0528,-0.0524,-0.0525,-0.0529,-0.0531,-0.0532,-0.053,-0.0534,-0.0534,-0.0532,-0.0535,-0.0535,-0.0532,-0.0529,-0.0534,-0.0534,-0.0525,-0.0525,-0.0525,-0.0517,0,0,0,0,0,0,-0.052,-0.0521,-0.052,-0.0525,-0.0526,-0.0523,-0.0531,-0.0532,-0.053,-0.053,-0.0531,-0.0532,-0.0535,-0.0533,-0.0532,-0.0528,-0.0534,-0.0525,-0.0525,-0.0525,-0.0518,-0.0517,-0.0516,0,0,0,0,0,-0.0519,-0.0515,-0.052,-0.0521,-0.0525,-0.0522,-0.0523,-0.0525,-0.053,-0.0525,-0.053,-0.0531,-0.053,-0.0532,-0.0532,-0.0528,-0.0525,-0.0525,-0.0525,-0.0518,-0.0517,-0.0516,0,0,0,0,0,0,-0.0506,-0.0516,-0.0521,-0.0519,-0.052,-0.0523,-0.0518,-0.0523,-0.0523,-0.0523,-0.0529,-0.0529,-0.0526,-0.0527,-0.0529,-0.0524,-0.0528,-0.0528,-0.0523,-0.0522,-0.0521,-0.0513,-0.0534,0,0,0,0,0,-0.0505,-0.0506,-0.0512,-0.051,-0.051,-0.0514,-0.0513,-0.0515,-0.0517,-0.0517,-0.052,-0.0522,-0.0524,-0.0524,-0.0524,-0.052,-0.052,-0.0517,-0.0516,-0.0516,-0.0509,-0.0514,-0.0513,-0.0523,-0.0523,-0.0523,0,0,-0.0498,-0.0504,-0.0503,-0.0507,-0.0508,-0.0503,-0.0514,-0.0509,-0.0505,-0.0517,-0.051,-0.0518,-0.0522,-0.052,-0.0518,-0.0521,-0.0512,-0.0515,-0.0515,-0.0508,-0.0514,-0.0513,-0.0512,-0.0523,-0.0523,-0.0523,0,0,-0.0481,-0.0491,-0.0485,-0.0485,-0.0487,-0.0491,-0.0489,-0.0491,-0.0492,-0.049,-0.0499,-0.0504,-0.0503,-0.0509,-0.0512,-0.0505,-0.0507,-0.0505,-0.0494,-0.05,-0.0499,-0.0498,-0.0493,-0.0492,-0.0505,-0.0505,-0.0505,0,-0.0472,-0.0468,-0.048,-0.0474,-0.0471,-0.0484,-0.0473,-0.0476,-0.0478,-0.0476,-0.0485,-0.049,-0.0498,-0.0497,-0.0499,-0.0503,-0.0503,-0.0499,-0.0499,-0.0498,-0.0498,-0.0493,-0.0492,-0.0505,-0.0505,-0.0505,-0.0505,0,-0.045,-0.0448,-0.0443,-0.0443,-0.0442,-0.0434,-0.0442,-0.044,-0.0447,-0.0451,-0.0451,-0.0467,-0.047,-0.0477,-0.0487,-0.0487,-0.0487,-0.0498,-0.0502,-0.0496,-0.0491,-0.049,-0.0504,-0.0505,-0.0505,-0.0505,0,0,-0.0427,-0.0428,-0.0426,-0.042,-0.0425,-0.0419,-0.0416,-0.0414,-0.0406,-0.0418,-0.0409,-0.0428,-0.044,-0.0444,-0.046,-0.0469,-0.0471,-0.0482,-0.0482,-0.0476,-0.0475,-0.0421,-0.0415,-0.0484,-0.0484,-0.0484,-0.0472,0,-0.0405,-0.0387,-0.0396,-0.0377,-0.0367,-0.038,-0.0374,-0.0376,-0.0381,-0.0375,-0.0397,-0.0396,-0.0426,-0.0429,-0.0444,-0.0462,-0.0469,-0.0473,-0.0481,-0.0481,-0.0433,-0.0411,-0.0407,-0.0391,-0.0471,-0.0471,-0.0471,0,-0.0379,-0.0372,-0.0351,-0.0343,-0.034,-0.0332,-0.0324,-0.032,-0.0324,-0.0327,-0.0338,-0.0353,-0.0369,-0.0396,-0.0424,-0.0425,-0.0448,-0.0464,-0.0464,-0.0414,-0.0424,-0.041,-0.0386,-0.0469,-0.0469,-0.0469,-0.047,0,-0.0351,-0.0339,-0.0322,-0.0319,-0.0313,-0.0305,-0.0303,-0.0303,-0.0292,-0.0296,-0.0285,-0.0313,-0.0316,-0.0354,-0.0392,-0.0409,-0.0414,-0.0443,-0.0414,-0.041,-0.0406,-0.0402,-0.0459,-0.0459,-0.0459,-0.0459,-0.0459,0,-0.0323,-0.0307,-0.0307,-0.0295,-0.0271,-0.0278,-0.0253,-0.0256,-0.0248,-0.0222,-0.0258,-0.0238,-0.0306,-0.0319,-0.0368,-0.0373,-0.0396,-0.0398,-0.0399,-0.0402,-0.0397,-0.0468,-0.0469,-0.0459,-0.0459,-0.0459,-0.0459,0,-0.0291,-0.0292,-0.027,-0.0261,-0.0257,-0.0239,-0.0222,-0.0202,-0.02,-0.0167,-0.0165,-0.0178,-0.0187,-0.0243,-0.0291,-0.0323,-0.0349,-0.0349,-0.0337,-0.0336,-0.035,-0.0351,-0.0313,-0.0311,-0.0309,-0.0307,-0.0306,0,-0.0269,-0.0256,-0.0243,-0.0229,-0.0223,-0.0201,-0.0184,-0.018,-0.0156,-0.012,-0.0097,-0.0093,-0.0063,-0.0103,-0.0163,-0.0211,-0.0279,-0.0256,-0.0285,-0.0327,-0.0333,-0.0337,-0.034,-0.0285,-0.0284,-0.0282,-0.0282,0,-0.0226,-0.0227,-0.0213,-0.019,-0.017,-0.0144,-0.0118,-0.009,-0.0072,-0.0027,0.0032,0.0064,0.0049,0.0011,-0.0053,-0.0098,-0.0247,-0.0231,-0.0283,-0.0309,-0.0296,-0.0303,-0.0309,-0.0272,-0.0273,-0.0274,-0.0274,-0.0274,-0.0196,-0.0181,-0.017,-0.0147,-0.0124,-0.0085,-0.0048,-0.0004,0.0058,0.0152,0.0154,0.0189,0.0101,0.0043,-0.0006,-0.0092,-0.0108,-0.019,-0.0196,-0.0203,-0.0188,-0.0171,-0.0121,-0.0121,-0.0121,-0.0121,-0.0121,0,-0.0157,-0.015,-0.0126,-0.0094,-0.0059,-0.0061,-0.0001,0.0057,0.0156,0.0224,0.031,0.0201,0.0184,0.0065,-0.0023,-0.0058,-0.0086,-0.0108,-0.0164,-0.0173,-0.0181,-0.0168,-0.0094,-0.0094,-0.0094,-0.0094,0,0,-0.0135,-0.0111,-0.0103,-0.0043,-0.0021,0.0038,0.0077,0.018,0.0234,0.0308,0.0297,0.035,0.0166,0.0085,0.0023,-0.0035,-0.0085,-0.0039,-0.0057,-0.0122,-0.0128,-0.0226,-0.0215,0,0,0,0,0]}],[{"header":{"parameterUnit":"m.s-1","parameterCategory":2,"la1":30.2991,"la2":30.254,"lo1":-89.0895,"lo2":-89.0444,"dy":0.0017,"dx":0.0017,"nx":28,"ny":28,"refTime":"2025-11-13T09:00:00:Z","depth":"4","parameterNumber":2,"parameterNumberName":"U-component_of_CURRENTS"},"data":[0,0,0,0,0,0,0,0,0,0,0,0,0,0,0,0,0,0,0,0,0,0,0,0,0,0,0,0,0,0,0,0,0,0,0,0,0,0,0,0,0,0,0,0,0,0,0,0,0,0,0,0,0,0,0,0,0,0,-0.0226,-0.0225,0,-0.021,-0.021,-0.021,-0.0199,-0.0198,-0.0198,-0.0198,-0.0219,-0.0219,-0.022,0,0,0,0,0,0,0,0,0,0,0,0,0,-0.0247,-0.0247,-0.0226,-0.0225,-0.0225,-0.021,-0.021,-0.021,-0.0199,-0.0198,-0.0198,-0.0198,-0.0219,-0.0219,-0.022,0,0,0,0,0,0,0,0,0,0,0,0,0,-0.0236,-0.0247,-0.0226,-0.0217,-0.0216,-0.021,-0.021,-0.021,-0.0199,-0.0198,-0.0198,-0.0198,-0.0218,-0.0219,-0.022,-0.0233,0,0,-0.0224,-0.0224,0,0,0,0,0,0,0,0,-0.0237,-0.0236,-0.0218,-0.0217,-0.0216,-0.0205,-0.0225,-0.0219,-0.0199,-0.0206,-0.0198,-0.0198,-0.0217,-0.0218,-0.0217,-0.0234,-0.0235,-0.0224,-0.0225,-0.0225,-0.0225,0,0,0,0,0,0,0,-0.0238,-0.0236,-0.0221,-0.0218,-0.0217,-0.0214,-0.0212,-0.0224,-0.0215,-0.0206,-0.0205,-0.0201,-0.0217,-0.0216,-0.0218,-0.0235,-0.0224,-0.0225,-0.0225,-0.0226,-0.027,-0.027,0,0,0,0,0,0,-0.0238,-0.0237,-0.0221,-0.022,-0.0225,-0.0214,-0.0212,-0.021,-0.0214,-0.0214,-0.0201,-0.0201,-0.0214,-0.0216,-0.0218,-0.0229,-0.0225,-0.0226,-0.0227,-0.0269,-0.027,-0.027,0,0,0,0,0,0,-0.0238,-0.0236,-0.0222,-0.0227,-0.0225,-0.0214,-0.0211,-0.021,-0.0201,-0.021,-0.0211,-0.0193,-0.0214,-0.0217,-0.0226,-0.023,-0.0227,-0.0228,-0.0269,-0.0269,-0.027,-0.0253,0,0,0,0,0,0,-0.0239,-0.0237,-0.0233,-0.0227,-0.0225,-0.0214,-0.0212,-0.021,-0.0199,-0.0198,-0.0204,-0.0206,-0.0214,-0.0224,-0.0227,-0.0231,-0.0228,-0.0268,-0.0269,-0.027,-0.0253,-0.0253,-0.0253,0,0,0,0,0,-0.024,-0.0237,-0.0233,-0.0231,-0.0221,-0.0213,-0.0212,-0.0204,-0.0199,-0.0194,-0.0201,-0.0205,-0.0232,-0.0225,-0.0228,-0.0233,-0.0268,-0.0269,-0.027,-0.0253,-0.0253,-0.0253,0,0,0,0,0,0,-0.0246,-0.0235,-0.0231,-0.0225,-0.0217,-0.0211,-0.0204,-0.0199,-0.02,-0.0198,-0.0208,-0.0211,-0.0222,-0.0232,-0.0223,-0.025,-0.0252,-0.0254,-0.0238,-0.0239,-0.0239,-0.0232,-0.0229,0,0,0,0,0,-0.0245,-0.0239,-0.0229,-0.0225,-0.0218,-0.021,-0.0205,-0.0199,-0.0199,-0.0198,-0.0203,-0.0215,-0.0231,-0.0236,-0.025,-0.0261,-0.0262,-0.0269,-0.0269,-0.0269,-0.0267,-0.0277,-0.0278,-0.0274,-0.0274,-0.0274,0,0,-0.0248,-0.0239,-0.0237,-0.0225,-0.0217,-0.0211,-0.0206,-0.0196,-0.0194,-0.0202,-0.0203,-0.0214,-0.0235,-0.0248,-0.0255,-0.0255,-0.0268,-0.0271,-0.027,-0.0268,-0.0279,-0.0279,-0.0279,-0.0275,-0.0275,-0.0275,0,0,-0.025,-0.024,-0.0234,-0.0226,-0.0211,-0.0207,-0.0202,-0.0193,-0.019,-0.0194,-0.0203,-0.0214,-0.0233,-0.0247,-0.0258,-0.0269,-0.0269,-0.0277,-0.0269,-0.028,-0.028,-0.028,-0.0266,-0.0265,-0.0276,-0.0276,-0.0276,0,-0.0253,-0.0243,-0.0232,-0.0222,-0.0215,-0.0204,-0.0197,-0.0196,-0.0193,-0.0195,-0.0192,-0.0221,-0.0233,-0.0256,-0.0259,-0.0268,-0.0266,-0.0264,-0.0278,-0.0279,-0.0279,-0.0265,-0.0264,-0.0275,-0.0275,-0.0275,-0.0275,0,-0.025,-0.0239,-0.0233,-0.0219,-0.0212,-0.0203,-0.0197,-0.0193,-0.0189,-0.0191,-0.0204,-0.0219,-0.0234,-0.0245,-0.0253,-0.0268,-0.0261,-0.0276,-0.0273,-0.0278,-0.0263,-0.0262,-0.0274,-0.0274,-0.0275,-0.0275,0,0,-0.0266,-0.0237,-0.0235,-0.0224,-0.0207,-0.0201,-0.0199,-0.0196,-0.0195,-0.0198,-0.0201,-0.0226,-0.0226,-0.0239,-0.0253,-0.0262,-0.0257,-0.0267,-0.0268,-0.0244,-0.026,-0.0254,-0.0253,-0.0273,-0.0274,-0.0274,-0.0243,0,-0.0266,-0.0246,-0.0235,-0.022,-0.0208,-0.0199,-0.0198,-0.0196,-0.0195,-0.0197,-0.0212,-0.022,-0.0228,-0.0231,-0.0242,-0.0259,-0.0257,-0.0263,-0.0267,-0.0267,-0.0254,-0.0253,-0.0274,-0.0242,-0.0242,-0.0242,-0.0242,0,-0.0267,-0.0251,-0.0234,-0.0213,-0.0208,-0.0199,-0.0192,-0.0189,-0.0193,-0.0193,-0.0201,-0.0208,-0.022,-0.0226,-0.0242,-0.0245,-0.0246,-0.0256,-0.0255,-0.0256,-0.026,-0.0242,-0.0241,-0.0241,-0.0241,-0.0241,-0.0241,0,-0.0277,-0.0252,-0.0236,-0.0228,-0.0206,-0.0198,-0.0188,-0.0186,-0.0183,-0.0184,-0.0182,-0.0199,-0.02,-0.0215,-0.0229,-0.0233,-0.0244,-0.0254,-0.0245,-0.0243,-0.0264,-0.0265,-0.0258,-0.0258,-0.0258,-0.0258,-0.0258,0,-0.0277,-0.0267,-0.0235,-0.0225,-0.0209,-0.0194,-0.0182,-0.0177,-0.0171,-0.0173,-0.0174,-0.0191,-0.0198,-0.0208,-0.0222,-0.0228,-0.0235,-0.0238,-0.0239,-0.0256,-0.0256,-0.0262,-0.0263,-0.0257,-0.0257,-0.0257,-0.0257,0,-0.0288,-0.0267,-0.025,-0.0222,-0.021,-0.0197,-0.0169,-0.0165,-0.0156,-0.0157,-0.0154,-0.0173,-0.0194,-0.0197,-0.0219,-0.0213,-0.0227,-0.0225,-0.0224,-0.0226,-0.0214,-0.0214,-0.0203,-0.0203,-0.0203,-0.0202,-0.0202,0,-0.0288,-0.0279,-0.0249,-0.0233,-0.0215,-0.0191,-0.0177,-0.0159,-0.0156,-0.0163,-0.0171,-0.0181,-0.0197,-0.0213,-0.0228,-0.0225,-0.0231,-0.0204,-0.0223,-0.0208,-0.021,-0.0211,-0.0212,-0.0202,-0.0202,-0.0201,-0.0201,0,-0.0295,-0.0288,-0.0275,-0.0242,-0.0218,-0.0195,-0.0173,-0.0164,-0.0154,-0.0151,-0.0179,-0.0186,-0.0207,-0.0228,-0.0209,-0.0222,-0.0206,-0.0201,-0.0201,-0.0219,-0.0205,-0.0209,-0.021,-0.02,-0.02,-0.0201,-0.0201,0,-0.0306,-0.03,-0.0282,-0.0251,-0.0224,-0.0196,-0.0183,-0.0175,-0.0166,-0.0163,-0.0189,-0.0212,-0.0226,-0.0229,-0.0237,-0.0221,-0.0222,-0.0198,-0.0199,-0.02,-0.0214,-0.0197,-0.0187,0,0,0,0,0,-0.0314,-0.0307,-0.0287,-0.025,-0.0225,-0.0203,-0.0182,-0.0172,-0.0161,-0.0175,-0.0171,-0.0199,-0.0206,-0.0235,-0.0219,-0.0234,-0.0217,-0.0212,-0.0188,-0.0194,-0.0195,-0.0214,0,0,0,0,0,0,-0.0314,-0.0311,-0.0294,-0.0255,-0.0226,-0.0197,-0.0178,-0.0171,-0.0178,-0.0175,-0.0195,-0.0184,-0.0211,-0.022,-0.0221,-0.0219,-0.0196,-0.0221,-0.022,-0.0193,-0.0195,-0.0196,-0.0215,0,0,0,0,0]},{"header":{"parameterUnit":"m.s-1","parameterCategory":2,"la1":30.2991,"la2":30.254,"lo1":-89.0895,"lo2":-89.0444,"dy":0.0017,"dx":0.0017,"nx":28,"ny":28,"refTime":"2025-11-13T09:00:00:Z","depth":"4","parameterNumber":3,"parameterNumberName":"V-component_of_CURRENTS"},"data":[0,0,0,0,0,0,0,0,0,0,0,0,0,0,0,0,0,0,0,0,0,0,0,0,0,0,0,0,0,0,0,0,0,0,0,0,0,0,0,0,0,0,0,0,0,0,0,0,0,0,0,0,0,0,0,0,0,0,0.0211,0.021,0,0.0167,0.0166,0.0166,0.0112,0.0111,0.0111,0.011,0.0052,0.0051,0.005,0,0,0,0,0,0,0,0,0,0,0,0,0,0.0231,0.0231,0.0211,0.021,0.021,0.0167,0.0166,0.0166,0.0112,0.0111,0.011,0.011,0.0052,0.0051,0.005,0,0,0,0,0,0,0,0,0,0,0,0,0,0.0208,0.0231,0.0211,0.0178,0.0175,0.0167,0.0166,0.0165,0.0113,0.0111,0.011,0.0109,0.0052,0.0051,0.005,0.0067,0,0,0.0046,0.0046,0,0,0,0,0,0,0,0,0.0209,0.0207,0.0183,0.018,0.0177,0.0144,0.0152,0.0132,0.0113,0.0136,0.011,0.0108,0.0082,0.0078,0.0073,0.0064,0.0062,0.0046,0.0045,0.0045,0.0044,0,0,0,0,0,0,0,0.0211,0.0209,0.0193,0.0183,0.0179,0.016,0.0155,0.0148,0.0116,0.0134,0.013,0.0126,0.008,0.0074,0.0071,0.0061,0.0046,0.0045,0.0044,0.0044,-0.0013,-0.0014,0,0,0,0,0,0,0.0219,0.0211,0.0194,0.0192,0.019,0.016,0.0155,0.0155,0.0116,0.0109,0.0127,0.0123,0.0077,0.0072,0.0069,0.0016,0.0045,0.0044,0.0043,-0.0012,-0.0013,-0.0014,0,0,0,0,0,0,0.022,0.0218,0.0196,0.02,0.0196,0.0161,0.0162,0.0155,0.0122,0.0111,0.0104,0.0097,0.0076,0.007,0.0035,0.0016,0.0043,0.0042,-0.0011,-0.0013,-0.0014,-0.0044,0,0,0,0,0,0,0.0221,0.0219,0.0214,0.0201,0.0196,0.0173,0.0163,0.0155,0.0123,0.0117,0.0084,0.0079,0.0074,0.0037,0.0034,0.0015,0.0041,-0.001,-0.0012,-0.0013,-0.0042,-0.0046,-0.0049,0,0,0,0,0,0.0222,0.0219,0.0214,0.0212,0.0193,0.0172,0.0167,0.0139,0.0122,0.0105,0.0079,0.0078,0.0025,0.0035,0.0032,0.0012,-0.001,-0.0011,-0.0013,-0.004,-0.0045,-0.0049,0,0,0,0,0,0,0.0218,0.0213,0.0207,0.0201,0.0181,0.0163,0.0143,0.0127,0.0094,0.0079,0.0068,0.0061,0.0024,0.0023,0.0035,-0.0008,0.0008,0.0006,-0.0011,-0.0016,-0.002,-0.0013,0.004,0,0,0,0,0,0.0219,0.0216,0.0204,0.0195,0.0184,0.0161,0.0145,0.0124,0.0099,0.0082,0.0058,0.0036,0.0021,0.0004,-0.0009,-0.0032,-0.0017,-0.0047,-0.0051,-0.0054,-0.0051,-0.0043,-0.0046,-0.002,-0.002,-0.002,0,0,0.0216,0.0211,0.0209,0.0193,0.0175,0.0154,0.0147,0.0114,0.0089,0.0083,0.0033,0.002,0.0012,-0.0017,-0.0034,-0.0026,-0.0055,-0.0056,-0.0059,-0.0054,-0.0046,-0.0048,-0.005,-0.0021,-0.0021,-0.0021,0,0,0.0203,0.02,0.0189,0.0173,0.0144,0.0133,0.0118,0.0085,0.006,0.0022,0.0011,-0.0014,-0.0046,-0.0053,-0.0058,-0.0089,-0.0074,-0.0099,-0.0115,-0.0108,-0.011,-0.0111,-0.0097,-0.0097,-0.0102,-0.0102,-0.0102,0,0.0193,0.0183,0.0179,0.0159,0.0141,0.012,0.0093,0.0073,0.0028,0.0011,-0.0002,-0.0047,-0.0058,-0.0078,-0.0093,-0.0097,-0.0088,-0.0098,-0.0112,-0.0113,-0.0114,-0.0099,-0.0098,-0.0104,-0.0104,-0.0103,-0.0103,0,0.0171,0.0156,0.0144,0.0118,0.0099,0.0071,0.0048,0.0017,-0.0012,-0.003,-0.007,-0.0084,-0.0107,-0.0117,-0.0116,-0.0132,-0.0122,-0.0116,-0.0098,-0.0118,-0.0101,-0.01,-0.0106,-0.0106,-0.0105,-0.0105,0,0,0.0163,0.0135,0.0129,0.0109,0.0073,0.0054,0.0018,-0.0014,-0.004,-0.0078,-0.0106,-0.0134,-0.0141,-0.0147,-0.015,-0.0148,-0.0149,-0.0139,-0.0138,-0.0121,-0.013,-0.0134,-0.0133,-0.0148,-0.0148,-0.0148,-0.0116,0,0.014,0.0105,0.0095,0.0052,0.0028,0.0006,-0.0022,-0.0054,-0.0081,-0.0111,-0.0124,-0.0149,-0.0152,-0.0164,-0.0165,-0.0153,-0.0147,-0.0158,-0.0117,-0.0115,-0.0113,-0.0132,-0.0148,-0.0114,-0.0114,-0.0114,-0.0114,0,0.0114,0.0096,0.0056,0.0019,0.0006,-0.002,-0.0064,-0.009,-0.0122,-0.0141,-0.0164,-0.0172,-0.0181,-0.0176,-0.0163,-0.0171,-0.0154,-0.0141,-0.0139,-0.013,-0.0118,-0.009,-0.0111,-0.0111,-0.0112,-0.0112,-0.0112,0,0.0104,0.0064,0.0034,0.0019,-0.0021,-0.0046,-0.007,-0.0106,-0.0123,-0.0155,-0.0165,-0.0183,-0.0185,-0.0174,-0.0151,-0.0159,-0.0124,-0.0128,-0.0113,-0.0112,-0.0102,-0.0101,-0.0111,-0.0111,-0.0111,-0.0112,-0.0112,0,0.0078,0.0051,0.0027,0.0007,-0.0031,-0.0056,-0.0095,-0.012,-0.0143,-0.0156,-0.0177,-0.0182,-0.0184,-0.0167,-0.015,-0.0126,-0.0121,-0.0116,-0.0108,-0.0116,-0.0117,-0.0101,-0.01,-0.011,-0.0111,-0.0111,-0.0111,0,0.0056,0.0043,0.001,-0.0025,-0.0039,-0.0068,-0.0103,-0.0122,-0.0143,-0.0156,-0.0162,-0.0175,-0.0164,-0.0151,-0.0125,-0.012,-0.0096,-0.0083,-0.0086,-0.0077,-0.009,-0.0092,-0.0077,-0.0077,-0.0077,-0.0077,-0.0077,0,0.0035,0.002,-0.0008,-0.0023,-0.0045,-0.0081,-0.0101,-0.0125,-0.0133,-0.0146,-0.0144,-0.0145,-0.0151,-0.0122,-0.011,-0.0083,-0.0079,-0.0065,-0.0094,-0.0096,-0.0088,-0.009,-0.0091,-0.0077,-0.0077,-0.0077,-0.0077,0,-0.0,-0.0001,-0.0022,-0.0044,-0.0068,-0.0087,-0.0111,-0.0117,-0.0131,-0.0135,-0.0139,-0.0142,-0.013,-0.0125,-0.0101,-0.008,-0.008,-0.0065,-0.0066,-0.0093,-0.0095,-0.0088,-0.0089,-0.0077,-0.0077,-0.0077,-0.0077,0,-0.0024,-0.0036,-0.0048,-0.0072,-0.0088,-0.0099,-0.0111,-0.012,-0.0129,-0.0135,-0.013,-0.0132,-0.0129,-0.0121,-0.0093,-0.0083,-0.0091,-0.0092,-0.0092,-0.0092,-0.0112,-0.0118,-0.0101,0,0,0,0,0,-0.005,-0.0059,-0.0076,-0.0096,-0.0105,-0.0114,-0.0118,-0.0121,-0.0122,-0.0127,-0.0132,-0.0123,-0.0119,-0.0115,-0.0108,-0.0094,-0.0084,-0.0085,-0.0085,-0.0077,-0.0077,-0.01,0,0,0,0,0,0,-0.0067,-0.0083,-0.0082,-0.0107,-0.0121,-0.0131,-0.0135,-0.0134,-0.0134,-0.0134,-0.0131,-0.0124,-0.0116,-0.0126,-0.011,-0.0106,-0.0105,-0.0078,-0.0078,-0.0077,-0.0077,-0.0077,-0.01,0,0,0,0,0]}]]